Regional Weather Roundup
Issued by NWS

Home | Current Version | Previous Version | Text Only | Print | Product List | Glossary Off
Versions: 1 2 3 4 5 6 7 8 9 10 11 12 13 14 15 16 17 18 19 20 21 22 23 24 25 26 27 28 29 30 31 32 33 34 35 36 37 38 39 40 41 42 43 44 45 46 47 48 49 50

000
ASUS43 KTOP 280508
RWRKS

WEATHER ROUNDUP FOR KANSAS
NATIONAL WEATHER SERVICE GOODLAND KS
1200 AM CDT MON JUL 28 2014

NOTE:  "FAIR" INDICATES FEW OR NO CLOUDS BELOW 12,000 FEET WITH NO
SIGNIFICANT WEATHER AND/OR OBSTRUCTIONS TO VISIBILITY.

KSZ001>006-013>018-027>032-041>047-280600-
NORTHWEST KANSAS

CITY           SKY/WX    TMP DP  RH WIND       PRES   REMARKS
GOODLAND       MOCLDY    66  53  63 S7        30.32R
HAYS           CLEAR     68  52  56 NE7       30.22S
HILL CITY      CLEAR     66  56  70 CALM      30.24S
RUSSELL        CLEAR     69  54  58 E7        30.20S
$$

KSZ061>065-074>080-084>089-280600-
SOUTHWEST KANSAS

CITY           SKY/WX    TMP DP  RH WIND       PRES   REMARKS
DODGE CITY     MOCLDY    70  53  54 E5        30.23F
ELKHART          N/A     68  59  73 SE5         N/A
GARDEN CITY    MOCLDY    72  57  59 SE5       30.26S
GREAT BEND     CLEAR     73  55  53 E5        30.20S
LIBERAL        CLOUDY    73  54  49 SE5       30.27S
PRATT          CLEAR     72  52  49 NE8       30.21F
$$

KSZ066>073-081>083-090>101-280600-
SOUTHEAST KANSAS

CITY           SKY/WX    TMP DP  RH WIND       PRES   REMARKS
CHANUTE        CLEAR     70  56  61 N6        30.14R
COFFEYVILLE    HAZE      71  64  78 N8        30.11R VSB 3/4
HUTCHINSON     CLEAR     72  54  53 NE7       30.18S
MEDICINE LODGE   N/A     69  66  90 N5        30.18R
NEWTON         CLEAR     72  52  49 NE6       30.22R
PARSONS        CLEAR     69  58  67 N5        30.13R
WICHITA INTL   PTCLDY    75  55  49 NE8       30.16S
WICHITA JABRA  CLEAR     68  56  65 N8        30.17R
WICHITA MCCONL CLEAR     73  54  51 N10       30.17R
WINFIELD       CLEAR     70  63  78 N5        30.16R
$$

KSZ007>012-019>026-033>040-048>060-102>105-280600-
NORTHEAST KANSAS

CITY           SKY/WX    TMP DP  RH WIND       PRES   REMARKS
CONCORDIA      CLEAR     68  58  70 CALM      30.19S
EMPORIA        CLEAR     72  57  59 N9        30.16R
LAWRENCE       CLEAR     71  58  63 N9        30.14R
MANHATTAN      CLEAR     71  59  65 N3        30.17R
MARYSVILLE     CLEAR     63  57  82 CALM      30.19S
OLATHE IND     CLEAR     67  58  72 N8        30.14R
OLATHE EXE     CLEAR     73  58  59 N8        30.13R
SALINA         CLEAR     74  54  49 N3        30.19R
TOPEKA BILLARD CLEAR     71  58  63 N8        30.15R
TOPEKA FORBES  CLEAR     72  56  57 N8        30.15R
$$


USA.gov is the U.S. government's official web portal to all federal, state and local government web resources and services.